Location: Trencin
(48.9000°N, 18.0330°E)
Time: 15:05:30
(UTC+01:00)

ISS - Visible Passes

Search period start: 12 December 2018 00:00
Search period end: 22 December 2018 00:00
Orbit: 401 x 408 km, 51.6° (Epoch: 12 December)

Date Brightness Start Highest point End Pass type
(mag) Time Alt. Az. Time Alt. Az. Time Alt. Az.
12 Dec -1.6 17:23:17 10° W 17:26:03 26° SW 17:28:49 10° SSE visible
13 Dec -2.4 16:30:55 10° WNW 16:34:01 41° SSW 16:37:07 10° SE visible
14 Dec -0.6 17:16:12 10° WSW 17:17:53 13° SW 17:19:33 10° SSW visible
15 Dec -0.9 16:23:19 10° W 16:25:55 22° SW 16:28:29 10° SSE visible
